This demonstration page uses our WeatherBlox Daily Observations layout. Learn more.

Left ArrowRight Arrow

Hourly Observations for January 31, 2019

Temp ( °F °C ) Dew Point ( °F °C ) Humidity (%) Winds ( mph kmh ) Pressure ( in mb ) Visibility ( mi km ) Precip ( " mm )
12:54 am 00:54 Partly Cloudy N/A -6 -21.1 76 76 SE 9 15 30.31 1026 10 16 N/A
1:54 am 01:54 Mostly Cloudy 1 -17.2 -5 -20.6 75 75 SE 8 13 30.30 1026 10 16 N/A
2:54 am 02:54 Clear 2 -16.7 -5 -20.6 72 72 SE 7 11 30.27 1025 10 16 N/A
3:54 am 03:54 Cloudy 3 -16.1 -4 -20 72 72 SE 9 15 30.26 1025 10 16 N/A
4:54 am 04:54 Cloudy 3 -16.1 -4 -20 72 72 SE 12 19 30.22 1024 10 16 N/A
5:54 am 05:54 Cloudy 4 -15.6 -3 -19.4 73 73 SSE 9 15 30.20 1023 10 16 N/A
6:54 am 06:54 Cloudy 4 -15.6 -2 -18.9 76 76 S 7 11 30.22 1023 10 16 N/A
7:54 am 07:54 Partly Cloudy 5 -15 -1 -18.3 76 76 S 9 15 30.21 1023 10 16 N/A
8:54 am 08:54 Mostly Sunny 7 -13.9 N/A 73 73 SSE 10 17 30.20 1023 10 16 N/A
9:54 am 09:54 Sunny 10 -12.2 2 -16.7 69 69 S 14 22 30.17 1022 10 16 N/A
10:54 am 10:54 Sunny 12 -11.1 4 -15.6 70 70 S 12 19 30.19 1022 10 16 N/A
11:54 am 11:54 Sunny 14 -10 5 -15 67 67 SSE 9 15 30.16 1022 10 16 N/A
12:54 pm 12:54 Sunny 16 -8.9 7 -13.9 67 67 S 12 19 30.12 1020 10 16 N/A
1:54 pm 13:54 Sunny 19 -7.2 9 -12.8 65 65 S 12 19 30.11 1020 10 16 N/A
2:54 pm 14:54 Sunny 20 -6.7 10 -12.2 65 65 S 7 11 30.10 1019 10 16 N/A
3:54 pm 15:54 Sunny 22 -5.6 12 -11.1 66 66 S 9 15 30.09 1019 10 16 N/A
4:54 pm 16:54 Sunny 22 -5.6 12 -11.1 66 66 SSE 8 13 30.10 1019 10 16 N/A
5:54 pm 17:54 Clear 20 -6.7 12 -11.1 71 71 S 8 13 30.09 1019 10 16 N/A
6:54 pm 18:54 Clear 18 -7.8 11 -11.7 74 74 SSE 7 11 30.10 1019 10 16 N/A
7:54 pm 19:54 Clear 20 -6.7 12 -11.1 71 71 ESE 5 7 30.12 1020 10 16 N/A
8:54 pm 20:54 Clear 16 -8.9 11 -11.7 80 80 N N/A 30.14 1021 10 16 N/A
9:54 pm 21:54 Clear 17 -8.3 12 -11.1 80 80 S 5 7 30.13 1020 10 16 N/A
10:54 pm 22:54 Clear 16 -8.9 11 -11.7 80 80 SSE 6 9 30.13 1020 10 16 N/A
11:54 pm 23:54 Clear 16 -8.9 10 -12.2 77 77 SE 3 6 30.13 1020 10 16 N/A

Powered by AerisWeather